Back to catalog

ATLAS 2AS CENTAUR R/B

AliveHEO
NORAD 26636·ROCKET BODY·🇺🇸 United States

Launched Dec 6, 2000 from Cape Canaveral Space Force Station

Loading…

Next Passes (next 24 hours)

TLE

FreshSource: Space-Track

Epoch: Sep 14, 2026, 11:34 UTC

1 26636U 00080B   26257.48229770  .00020375  00000-0  16964-2 0  9997
2 26636  26.1541 231.8088 5842263 129.8392 298.2205  4.32157057100348

Track ATLAS 2AS CENTAUR R/B in real time with AllMySat

Download on the App Store